This is the latest recevied weather packets stored in our database for station/object OE2WNL. If no packets are shown the sender has not sent any weather packets the latest 10 day(s).
| Time | Temp. | Humidity | Pressure | Rain* | Wind** | Luminosity | Snow |
|---|---|---|---|---|---|---|---|
| 1788553218 | 18.33° C | 67% | 1015.9 hPa | 0 mm | - | - | - |
| 1788552918 | 18.33° C | 67% | 1016 hPa | 0 mm | - | - | - |
| 1788552618 | 18.89° C | 66% | 1015.4 hPa | 0 mm | - | - | - |
| 1788552318 | 18.33° C | 66% | 1015.7 hPa | 0 mm | - | - | - |
| 1788552009 | 18.33° C | 66% | 1015.6 hPa | 0 mm | - | - | - |
| 1788551709 | 18.89° C | 66% | 1015.6 hPa | 0 mm | - | - | - |
| 1788551409 | 19.44° C | 64% | 1015.4 hPa | 0 mm | - | - | - |
| 1788551099 | 20° C | 62% | 1015.4 hPa | 0 mm | - | - | - |
| 1788550799 | 20° C | 62% | 1015.4 hPa | 0 mm | - | - | - |
| 1788550499 | 20° C | 61% | 1015.2 hPa | 0 mm | - | - | - |
| 1788550199 | 20.56° C | 60% | 1015.3 hPa | 0 mm | - | - | - |
| 1788549899 | 20.56° C | 59% | 1015.4 hPa | 0 mm | - | - | - |
| 1788549599 | 20.56° C | 59% | 1015.3 hPa | 0 mm | - | - | - |
| 1788549289 | 20.56° C | 59% | 1015.1 hPa | 0 mm | - | - | - |
| 1788548989 | 20.56° C | 59% | 1015 hPa | 0 mm | - | - | - |
| 1788548689 | 20.56° C | 60% | 1015 hPa | 0 mm | - | - | - |
| 1788548380 | 21.11° C | 59% | 1015 hPa | 0 mm | - | - | - |
| 1788548070 | 21.11° C | 58% | 1015 hPa | 0 mm | - | - | - |
| 1788547770 | 21.67° C | 56% | 1014.8 hPa | 0 mm | - | - | - |
| 1788547470 | 21.67° C | 55% | 1015 hPa | 0 mm | - | - | - |
| 1788547170 | 21.67° C | 54% | 1014.6 hPa | 0 mm | - | - | - |
| 1788546869 | 21.67° C | 54% | 1014.6 hPa | 0 mm | - | - | - |
| 1788546569 | 22.22° C | 51% | 1014.4 hPa | 0 mm | - | - | - |
| 1788546259 | 22.78° C | 52% | 1014 hPa | 0 mm | - | - | - |
| 1788545959 | 23.33° C | 51% | 1014 hPa | 0 mm | - | - | - |
* Rain latest hour (hover to see other rain measurements)
** Current wind speed in m/s (hover to see current wind gust speed)